www.pogodaiklimat.ru

Погода и климат >> Архив погоды >> Великобритания >> Хай-Уиком


ПОГОДА в Хай-Уикоме

  • Прогноз погоды в Хай-Уикоме
  • Монитор погоды в Хай-Уикоме

АРХИВ ПОГОДЫ в Хай-Уикоме

Время (UTC), дата Ветер
(напр.,м/с)
 
Видим.   Явления Облачность Т
(С)
Тd
(С)
f
(%)
Тe
(С)
Тes
(С)
Комфортность P
(гПа)
Po
(гПа)
Тmin
(С)
Tmax
(С)
R
(мм)
R24
(мм)
S
(см)
10 16.07 Ю 2 45 км н/о +21.1 +12.7 59 +23 +23 комфорт 1019.3 995.5
11 16.07 СЗ 2 30 км н/о +23.0 +11.9 50 +26 +26 жарко 1018.9 995.3
12 16.07 ЮВ 2 21 км н/о +22.6 +9.1 42 +24 +24 комфорт 1018.8 995.1
13 16.07 Ю 2 29 км н/о +23.0 +10.7 46 +25 +25 комфорт 1018.3 994.7
14 16.07 ЮЗ 2 45 км н/о +23.5 +9.9 42 +25 +25 комфорт 1018.1 994.4
15 16.07 ЮВ 1 45 км н/о +23.2 +8.5 39 +24 +24 комфорт 1017.7 994.0
16 16.07 ЮЗ 2 30 км н/о +24.3 +8.0 35 +25 +25 комфорт 1017.2 993.7
17 16.07 ЮЗ 1 35 км н/о +23.9 +9.8 41 +25 +25 комфорт 1016.9 993.3
18 16.07 ЮЗ 2 30 км н/о +23.6 +8.3 38 +24 +24 комфорт 1016.7 993.2 +25.5
19 16.07 ЮЗ 2 45 км н/о +22.2 +9.2 43 +24 +24 комфорт 1016.7 993.0
20 16.07 З 1 45 км н/о +20.3 +9.0 48 +23 +23 комфорт 1016.9 993.1
21 16.07 ЮЗ 3 35 км н/о +18.3 +12.9 71 +19 +19 1017.4 993.4
22 16.07 ЮЗ 2 40 км н/о +17.2 +13.0 76 +18 +18 1017.6 993.5
23 16.07 Ю 1 40 км н/о +16.0 +12.7 81 +17 +17 1017.6 993.4
00 17.07 ЮЗ 2 30 км н/о +15.1 +12.6 85 +15 +15 1017.6 993.3
01 17.07 СЗ 1 27 км н/о +14.1 +12.6 91 +14 +14 1017.3 992.9
02 17.07 З 1 17 км н/о +13.9 +12.7 92 +14 +14 1016.8 992.4
03 17.07 З 2 15 км н/о +13.5 +12.3 92 +13 +13 1016.3 991.9
04 17.07 СЗ 1 14 км н/о +13.2 +12.3 94 +13 +13 1016.1 991.7
05 17.07 СЗ 1 16 км н/о +13.5 +12.7 95 +14 +14 1015.8 991.4
06 17.07 ЮВ 1 15 км н/о +15.4 +14.0 91 +16 +16 1015.4 991.2 +13.0
07 17.07 З 1 18 км н/о +16.8 +14.4 86 +18 +18 1015.3 991.2
08 17.07 Ю 2 15 км н/о +18.5 +14.3 77 +20 +20 1015.4 991.4
09 17.07 Ю 3 20 км н/о +20.3 +14.6 70 +23 +23 комфорт 1015.0 991.2
10 17.07 ЮЗ 3 27 км н/о +21.3 +15.3 69 +24 +24 комфорт 1014.5 990.8
11 17.07 ЮЗ 2 35 км н/о +22.5 +14.8 62 +26 +26 жарко 1014.2 990.6
12 17.07 ЮЗ 2 22 км н/о +22.9 +14.0 57 +26 +26 жарко 1013.6 990.1
13 17.07 Ю 3 23 км н/о +23.2 +11.9 49 +26 +26 жарко 1013.0 989.5
14 17.07 ЮЗ 3 40 км н/о +22.9 +11.4 48 +25 +25 комфорт 1012.7 989.2
15 17.07 ЮЗ 2 26 км н/о +22.7 +11.2 48 +25 +25 комфорт 1012.4 988.8
16 17.07 З 2 30 км н/о +22.6 +13.4 56 +26 +26 жарко 1011.9 988.4
17 17.07 З 3 30 км н/о +22.4 +13.3 56 +25 +25 комфорт 1011.8 988.3
18 17.07 ЮЗ 4 40 км в посл. час дождь н/о +20.6 +11.5 56 +23 +23 комфорт 1011.7 988.0 +24.0 0.0
19 17.07 ЮЗ 3 45 км н/о +19.7 +10.5 55 +21 +21 комфорт 1011.5 987.7
20 17.07 ЮЗ 2 50 км н/о +18.7 +9.9 57 +20 +20 1011.5 987.6
21 17.07 ЮЗ 2 50 км н/о +18.0 +9.8 59 +19 +19 1011.8 987.9
22 17.07 З 1 45 км н/о +17.0 +10.9 67 +18 +18 1011.7 987.7
23 17.07 ЮЗ 2 30 км н/о +16.5 +12.8 79 +17 +17 1011.4 987.4
00 18.07 З 2 30 км н/о +15.9 +12.4 80 +16 +16 1011.2 987.2
01 18.07 З 1 35 км н/о +14.6 +11.1 80 +15 +15 1011.1 986.9
02 18.07 ЮЗ 2 30 км н/о +14.2 +11.9 86 +14 +14 1010.6 986.4
03 18.07 Ю 2 15 км н/о +14.4 +13.0 91 +14 +14 1010.1 986.0
04 18.07 ЮЗ 3 3600 м морось н/о +14.1 +13.5 96 +13 +13 1009.8 985.6
05 18.07 Ю 3 1500 м морось н/о +14.1 +14.0 99 +13 +13 1009.4 985.2
06 18.07 ЮЗ 2 2400 м дождь н/о +14.4 +14.3 99 +14 +14 1009.5 985.3 +14.0 2
07 18.07 Ю 3 8000 м в посл. час дождь н/о +15.0 +14.9 99 +14 +14 1009.3 985.2
08 18.07 ЮЗ 2 29 км н/о +15.9 +15.8 99 +16 +16 1009.4 985.3
09 18.07 З 3 17 км н/о +16.5 +15.8 96 +16 +16 1009.4 985.4
10 18.07 З 3 28 км н/о +17.7 +15.7 88 +18 +18 1009.4 985.5
11 18.07 З 3 40 км н/о +18.5 +14.7 79 +19 +19 1009.6 985.8
12 18.07 З 3 30 км н/о +19.8 +14.4 71 +22 +22 комфорт 1009.5 985.8 0.6
13 18.07 СЗ 3 35 км н/о +19.7 +13.2 66 +22 +22 комфорт 1010.0 986.3
14 18.07 СЗ 3 40 км н/о +20.3 +12.2 60 +23 +23 комфорт 1010.0 986.3
15 18.07 СЗ 4 40 км н/о +19.8 +10.5 55 +21 +21 комфорт 1010.1 986.4
16 18.07 СЗ 3 30 км н/о +19.9 +11.0 56 +22 +22 комфорт 1010.4 986.6
17 18.07 З 3 35 км н/о +19.7 +10.2 54 +21 +21 комфорт 1010.5 986.8
18 18.07 СЗ 2 40 км н/о +19.5 +10.5 56 +21 +21 комфорт 1010.7 987.0 +22.2 0.6
19 18.07 З 2 50 км н/о +18.4 +10.8 61 +19 +19 1011.1 987.3
20 18.07 З 2 40 км н/о +16.9 +10.5 66 +17 +17 1011.7 987.7
21 18.07 З 2 35 км н/о +15.1 +10.1 72 +15 +15 1012.4 988.2
22 18.07 З 1 50 км н/о +13.5 +9.3 76 +14 +14 1012.8 988.5
23 18.07 СЗ 2 35 км н/о +13.3 +9.8 79 +13 +13 1013.1 988.8
00 19.07 З 2 30 км н/о +12.9 +10.4 85 +12 +12 1013.2 988.9
01 19.07 З 2 18 км н/о +12.4 +11.0 91 +12 +12 1013.2 988.8
02 19.07 З 1 18 км н/о +11.9 +11.0 94 +12 +12 1013.3 988.8
03 19.07 З 2 16 км н/о +12.1 +11.4 95 +11 +11 1012.8 988.4
04 19.07 З 1 14 км н/о +12.1 +11.6 97 +12 +12 1012.9 988.5
05 19.07 Ю 1 12 км н/о +11.9 +11.5 97 +12 +12 1012.9 988.4
06 19.07 Ю 2 15 км н/о +12.0 +11.4 96 +11 +11 1012.7 988.2 +11.7
07 19.07 Ю 2 16 км в посл. час дождь н/о +12.8 +11.8 94 +12 +12 1012.6 988.3
08 19.07 Ю 3 17 км в посл. час дождь н/о +13.4 +12.2 92 +12 +12 1012.4 988.0
09 19.07 Ю 3 6000 м дым н/о +14.3 +13.1 92 +13 +13 1011.8 987.6
10 19.07 Ю 4 2800 м ливневой дождь н/о +13.9 +13.7 99 +12 +12 1011.9 987.6
11 19.07 Ю 5 7000 м дождь н/о +14.3 +14.1 99 +13 +13 1010.9 986.7
12 19.07 Ю 5 5000 м ливневой дождь н/о +14.8 +14.6 99 +13 +13 1010.3 986.2 6
13 19.07 Ю 5 5000 м в посл. час дождь н/о +16.0 +15.9 99 +15 +15 1010.3 986.3
14 19.07 ЮЗ 5 4200 м дымка н/о +16.3 +16.2 99 +15 +15 1010.0 986.0
15 19.07 ЮЗ 4 3100 м слаб. ливневой дождь н/о +16.5 +16.4 99 +16 +16 1009.8 985.8
17 19.07 ЮЗ 4 4000 м дождь н/о +16.7 +16.5 99 +16 +16 1009.3 985.4
18 19.07 Ю 3 3200 м в посл. час дождь н/о +16.9 +16.8 99 +17 +17 1008.9 984.9 +16.9 8
19 19.07 ЮЗ 4 13 км слаб. дождь н/о +17.0 +16.8 99 +17 +17 1008.6 984.7
20 19.07 ЮЗ 4 6000 м в посл. час дождь н/о +16.8 +16.6 99 +16 +16 1008.6 984.7
21 19.07 Ю 4 5000 м дымка н/о +16.6 +16.4 99 +16 +16 1008.3 984.4
22 19.07 Ю 3 3600 м слаб. ливневой дождь н/о +16.4 +16.2 99 +16 +16 1007.8 983.9
23 19.07 Ю 3 3900 м в посл. час дождь н/о +16.3 +16.2 99 +16 +16 1007.8 983.8
00 20.07 ЮЗ 4 3300 м слаб. ливневой дождь н/о +16.3 +16.1 99 +15 +15 1007.5 983.6 0.6
01 20.07 ЮЗ 4 2800 м сильн. дождь н/о +16.1 +16.0 99 +15 +15 1007.1 983.1
02 20.07 ЮЗ 3 10 км в посл. час дождь н/о +15.7 +15.6 99 +15 +15 1006.5 982.6
03 20.07 ЮЗ 4 10 км в посл. час дождь н/о +15.7 +15.6 99 +15 +15 1006.2 982.2
04 20.07 Ю 4 7000 м ливневой дождь н/о +15.6 +15.5 99 +15 +15 1005.6 981.6
05 20.07 ЮЗ 4 12 км в посл. час дождь н/о +15.5 +15.4 99 +14 +14 1005.5 981.5
06 20.07 ЮЗ 4 11 км н/о +15.6 +15.4 99 +15 +15 1005.5 981.6 +15.5 6
07 20.07 ЮЗ 3 16 км н/о +16.2 +15.9 98 +16 +16 1005.2 981.3
08 20.07 ЮЗ 4 26 км н/о +17.1 +15.9 93 +17 +17 1005.9 982.1
09 20.07 ЮЗ 4 30 км н/о +17.9 +15.5 86 +18 +18 1006.0 982.2
10 20.07 ЮЗ 4 4400 м ливневой дождь н/о +17.6 +14.8 84 +17 +17 1006.4 982.6
11 20.07 З 4 25 км в посл. час дождь н/о +18.2 +15.5 84 +18 +18 1007.0 983.2
12 20.07 З 6 26 км н/о +20.0 +13.7 67 +22 +22 комфорт 1007.3 983.7 0.2
13 20.07 З 5 27 км н/о +20.2 +12.1 60 +22 +22 комфорт 1007.8 984.1
14 20.07 З 5 35 км н/о +20.5 +13.2 63 +23 +23 комфорт 1008.3 984.6
15 20.07 З 4 25 км н/о +19.8 +12.4 62 +21 +21 комфорт 1009.2 985.5
16 20.07 З 5 30 км н/о +20.6 +12.9 61 +23 +23 комфорт 1009.7 986.0
17 20.07 З 4 40 км н/о +20.3 +13.6 65 +23 +23 комфорт 1010.5 986.8
18 20.07 З 4 30 км н/о +19.5 +13.0 66 +21 +21 комфорт 1011.2 987.4 +21.7 0.2
19 20.07 З 4 40 км н/о +18.5 +12.6 68 +19 +19 1012.2 988.3
20 20.07 З 2 40 км н/о +16.5 +12.4 77 +17 +17 1013.5 989.4
21 20.07 З 3 35 км н/о +15.5 +12.7 83 +15 +15 1014.6 990.4
22 20.07 З 3 28 км н/о +15.0 +12.4 84 +14 +14 1015.4 991.1
23 20.07 З 3 28 км н/о +13.4 +12.0 91 +12 +12 1016.1 991.7
00 21.07 З 3 18 км н/о +12.8 +11.6 92 +12 +12 1016.5 992.1
01 21.07 З 3 20 км н/о +12.6 +11.4 92 +11 +11 1017.0 992.5
02 21.07 З 3 18 км н/о +12.6 +11.6 94 +11 +11 1017.5 993.0
03 21.07 З 2 18 км н/о +12.0 +11.3 95 +11 +11 1017.9 993.3
04 21.07 З 2 17 км н/о +11.6 +11.0 96 +11 +11 1018.4 993.8
05 21.07 З 2 22 км н/о +11.9 +11.5 97 +11 +11 1019.0 994.4
06 21.07 З 2 25 км н/о +13.4 +12.0 91 +13 +13 1019.7 995.3 +11.4
07 21.07 ЮЗ 1 35 км н/о +15.1 +12.8 86 +16 +16 1020.1 995.7
08 21.07 ЮЗ 2 35 км н/о +16.5 +13.5 82 +17 +17 1020.1 995.9
09 21.07 ЮЗ 3 29 км н/о +17.5 +14.5 83 +18 +18 1020.4 996.3
10 21.07 ЮЗ 3 50 км н/о +18.5 +13.6 73 +19 +19 1020.5 996.5
11 21.07 ЮЗ 4 40 км н/о +19.5 +12.9 66 +21 +21 комфорт 1020.7 996.8
12 21.07 ЮЗ 3 30 км н/о +19.8 +11.7 60 +22 +22 комфорт 1020.8 996.9
13 21.07 ЮЗ 3 30 км н/о +20.7 +12.4 59 +23 +23 комфорт 1020.8 996.9
14 21.07 ЮЗ 4 40 км н/о +19.5 +13.1 66 +21 +21 комфорт 1021.2 997.2
15 21.07 ЮЗ 4 40 км н/о +19.9 +13.6 67 +22 +22 комфорт 1021.1 997.1
16 21.07 ЮЗ 4 35 км н/о +20.3 +13.7 66 +23 +23 комфорт 1020.8 996.9
17 21.07 ЮЗ 4 50 км н/о +20.0 +12.7 63 +22 +22 комфорт 1020.5 996.6
18 21.07 ЮЗ 4 50 км н/о +19.6 +12.8 65 +21 +21 комфорт 1020.7 996.7 +22.0
19 21.07 ЮЗ 4 50 км н/о +18.9 +12.4 66 +20 +20 1020.7 996.6
20 21.07 ЮЗ 3 45 км н/о +17.8 +12.7 72 +18 +18 1021.1 996.9
21 21.07 Ю 3 50 км н/о +16.6 +12.3 76 +16 +16 1021.3 997.1
22 21.07 Ю 3 40 км н/о +15.6 +12.4 81 +15 +15 1021.6 997.2
23 21.07 ЮЗ 3 30 км н/о +14.7 +12.7 88 +14 +14 1021.6 997.2
00 22.07 ЮЗ 3 20 км н/о +14.6 +13.7 94 +14 +14 1021.4 997.0
01 22.07 ЮЗ 5 20 км н/о +15.2 +14.0 93 +14 +14 1020.9 996.6
02 22.07 ЮЗ 4 19 км н/о +15.4 +14.2 93 +14 +14 1021.0 996.7
03 22.07 ЮЗ 4 21 км н/о +15.8 +14.4 91 +15 +15 1021.1 996.8
04 22.07 ЮЗ 4 15 км н/о +16.0 +14.5 91 +15 +15 1020.8 996.5
05 22.07 ЮЗ 4 20 км н/о +16.1 +14.7 91 +15 +15 1021.0 996.7
06 22.07 ЮЗ 4 22 км н/о +16.6 +15.0 90 +16 +16 1021.3 997.1 +14.4
07 22.07 ЮЗ 3 23 км н/о +17.5 +15.7 89 +18 +18 1021.7 997.6
08 22.07 ЮЗ 4 30 км н/о +18.5 +16.3 87 +19 +19 1022.0 997.8
09 22.07 ЮЗ 4 27 км н/о +20.8 +17.3 80 +25 +25 комфорт 1021.8 997.9
10 22.07 ЮЗ 4 30 км н/о +22.2 +17.5 75 +27 +27 душно 1021.7 997.9
11 22.07 З 4 35 км н/о +24.2 +17.4 66 +28 +28 душно 1021.7 998.0
12 22.07 З 3 20 км н/о +24.3 +16.9 63 +28 +28 душно 1021.8 998.2
13 22.07 З 3 35 км н/о +24.6 +17.3 64 +29 +29 душно 1021.4 997.8
14 22.07 З 3 50 км н/о +25.0 +17.5 63 +29 +29 душно 1021.2 997.6
15 22.07 ЮЗ 4 40 км н/о +25.0 +18.2 66 +29 +29 душно 1021.0 997.5
16 22.07 З 4 40 км н/о +25.3 +17.8 63 +30 +30 душно 1020.6 997.1
17 22.07 ЮЗ 3 45 км н/о +24.7 +17.2 63 +29 +29 душно 1020.6 997.0
18 22.07 ЮЗ 3 45 км н/о +24.0 +17.3 66 +28 +28 душно 1020.7 997.1 +26.3
20 22.07 ЮЗ 2 40 км н/о +21.4 +17.0 76 +25 +25 комфорт 1021.1 997.2
21 22.07 З 1 22 км н/о +20.1 +16.7 81 +24 +24 комфорт 1021.4 997.4
22 22.07 З 1 27 км н/о +18.8 +16.7 88 +21 +21 комфорт 1021.7 997.7
23 22.07 ЮЗ 1 29 км н/о +18.4 +16.4 88 +21 +21 комфорт 1021.6 997.5
00 23.07 З 1 20 км н/о +17.4 +16.5 94 +18 +18 1021.7 997.5
01 23.07 штиль 0 14 км н/о +16.7 +16.0 96 +17 +17 1021.2 997.0
02 23.07 штиль 0 10 км дымка н/о +16.6 +16.3 98 +16 +16 1021.2 997.0
03 23.07 ЮВ 1 7000 м дымка н/о +15.8 +15.4 97 +16 +16 1021.2 996.9
04 23.07 В 1 11 км дымка н/о +16.3 +16.2 99 +17 +17 1020.8 996.5
05 23.07 В 2 5000 м дымка н/о +15.6 +15.4 99 +15 +15 1020.8 996.4
06 23.07 В 3 7000 м дымка н/о +18.3 +18.0 98 +19 +19 1020.3 996.3 +15.4
07 23.07 В 3 20 км н/о +20.0 +17.8 87 +23 +23 комфорт 1019.9 995.9
08 23.07 В 4 18 км н/о +22.1 +17.7 76 +27 +27 душно 1019.3 995.6
09 23.07 ЮВ 4 30 км н/о +23.1 +17.1 69 +28 +28 душно 1018.9 995.3
10 23.07 ЮВ 4 40 км н/о +25.1 +16.8 60 +29 +29 душно 1018.4 994.9

 

Местоположение метеостанции Хай-Уиком (Великобритания): широта 51.68 долгота -0.80 высота над уровнем моря 205 м.

В архиве по умолчанию представлена погода в Хай-Уикоме за последнюю неделю. Архивные данные за месяц целиком и за предыдущие месяцы, начиная с января 2011 года, Вы можете получить, выбрав интересующий диапазон дат из раскрывающегося списка и нажав кнопку "Ввод!".


*Определитесь, кто Вы:
робот инопланетянин человек

Внимание! Время в таблицах - всемирное. Для получения местного времени необходимо прибавить поправку, которая равна 0 ч.

Смотрите также архив погоды в соседних городах и на ближайших метеорологических станциях:

Погода в Бенсоне (Великобритания) (20 км)
Погода в Норхолте (Великобритания) (30 км)
Погода в Аэропорту Хитроу (Великобритания) (33 км)
Погода в Фарнборо (Великобритания) (45 км)
Погода в Лондоне (Великобритания) (51 км)
Погода в Одихеме (Великобритания) (51 км)
Погода на Авиабазе Brize Norton (Великобритания) (54 км)
Погода в Чарлвуде (Великобритания) (58 км)
Погода в Бедфорде (Великобритания) (64 км)
Погода в Литл Ризсингтон (Великобритания) (64 км)

Пояснения к столбцам:

Ветер - указаны скорость ветра в м/с - средняя за 10 мин, порывы в срок и между сроками (в фигурных скобках) и направление, откуда дует ветер: С - северный, СВ - северо-восточный, В - восточный, ЮВ - юго-восточный, Ю - южный, ЮЗ - юго-западный, З - западный, СЗ - северо-западный.
Видимость - горизонтальная дальность видимости в метрах или километрах. При видимости от 1 до 10 км при отсутствии осадков обычно наблюдается дымка, при ухудшении видимости до 1 км и менее - туман. В сухую погоду видимость может ухудшаться дымом, пылью или мглою.
Явления - указаны атмосферные явления, наблюдавшиеся в срок или в последний час перед сроком; фигурными скобками обозначены явления, наблюдавшиеся между сроками (за 1-3 часа до срока); квадратными скобками обозначены град или гололедные отложения с указанием их диаметра в мм.
Облачность - указаны через наклонную черту общая и нижняя облачность в баллах и высота нижней границы облаков в метрах; квадратными скобками обозначены формы облаков: Ci - перистые, Cs - перисто-слоистые, Cc - перисто-кучевые, Ac - высококучевые, As - высокослоистые, Sc - слоисто-кучевые, Ns - слоисто-дождевые, Cu - кучевые, Cb - кучево-дождевые. Подробнее классификацию облаков см. в Атласе облаков (PDF).
T - Температура воздуха - температура, измеренная на высоте 2 м над землей.
Td - Температура точки росы - температура, при понижении до которой содержащийся в воздухе водяной пар достигнет насыщения.
f - Относительная влажность воздуха - влажноcть воздуха, измеренная на высоте 2 м над землей.
Te - Эффективная температура - температура, которую ощущает одетый по сезону человек в тени. Характеристика душности погоды. При расчете учитывается влияние влажности воздуха и скорости ветра на теплоощущения человека.
Tes - Эффективная температура на солнце - температура, которую ощущает человек, с поправкой на солнечный нагрев. Характеристика знойности погоды. Зависит от высоты солнца над горизонтом, облачности и скорости ветра. Ночью, в пасмурную погоду, а также при ветре 12 м/с и более поправка равна нулю.
P - Атмосферное давление - приведенное к уровню моря атмосферное давление.
Po - Атмосферное давление - измеренное на уровне метеостанции атмосферное давление.
Tmin - Минимальная температура - минимум температуры воздуха на высоте 2 м над землей.
Tmax - Максимальная температура - максимум температуры воздуха на высоте 2 м над землей.
R - Количество осадков - Количество выпавших осадков за период времени, мм. При наведении курсора мыши на число - период времени, за который выпало указанное количество осадков.
R24 - Количество осадков - Количество выпавших осадков за 24 часа, мм.
S - Снежный покров - Высота снежного покрова, см. При наведении курсора мыши на число - состояние снежного покрова и степень покрытия местности в баллах.